Terminal Aerodrome Forecast
Issued by NWS

Home | Current Version | Previous Version | Text Only | Print | Product List | Glossary On
Versions: 1 2 3 4 5 6 7 8 9 10 11 12 13 14 15 16
326
FTUS46 KMTR 010520
TAFOAK
TAF
KOAK 010520Z 0106/0212 26012KT P6SM FEW010
     FM010800 27009KT P6SM SCT010
     FM011000 27007KT P6SM BKN010
     FM011700 26005KT P6SM SCT010
     FM011900 28013KT P6SM FEW012
     FM020400 24006KT P6SM SCT080=

USA.gov is the U.S. government's official web portal to all federal, state and local government web resources and services.